H1 CPF 2 NER 2021 8 5 9 217 01 glonass134 H2 1407501 9134 40315 2021 8 5 0 0 0 2021 8 8 23 45 0 900 1 1 0 0 0 1 H9 10 0 59431 0.00000 0 -14246355.942 20317462.678 -5716634.168 10 0 59431 900.00000 0 -13765964.928 19555539.505 -8745057.520 10 0 59431 1800.00000 0 -13199903.901 18426594.960 -11602705.063 10 0 59431 2700.00000 0 -12604427.213 16940300.722 -14233785.441 10 0 59431 3600.00000 0 -12034152.642 15119098.153 -16586966.995 10 0 59431 4500.00000 0 -11539593.289 12997464.341 -18616392.297 10 0 59431 5400.00000 0 -11164882.159 10620679.700 -20282579.816 10 0 59431 6300.00000 0 -10945787.172 8043149.367 -21553194.521 10 0 59431 7200.00000 0 -10908101.333 5326349.888 -22403672.342 10 0 59431 8100.00000 0 -11066476.067 2536488.262 -22817686.956 10 0 59431 9000.00000 0 -11423746.351 -258027.909 -22787450.889 10 0 59431 9900.00000 0 -11970774.862 -2989202.805 -22313846.520 10 0 59431 10800.00000 0 -12686820.086 -5592038.417 -21406386.121 10 0 59431 11700.00000 0 -13540411.094 -8006987.055 -20083003.471 10 0 59431 12600.00000 0 -14490690.324 -10182169.411 -18369682.808 10 0 59431 13500.00000 0 -15489166.283 -12075267.825 -16299933.882 10 0 59431 14400.00000 0 -16481801.225 -13655018.381 -13914124.591 10 0 59431 15300.00000 0 -17411345.188 -14902242.533 -11258685.206 10 0 59431 16200.00000 0 -18219818.034 -15810378.350 -8385200.310 10 0 59431 17100.00000 0 -18851035.366 -16385492.354 -5349406.372 10 0 59431 18000.00000 0 -19253072.820 -16645774.257 -2210114.495 10 0 59431 18900.00000 0 -19380566.199 -16620538.272 971921.143 10 0 59431 19800.00000 0 -19196751.975 -16348774.704 4135167.876 10 0 59431 20700.00000 0 -18675163.698 -15877313.742 7218490.433 10 0 59431 21600.00000 0 -17800914.098 -15258679.037 10162316.544 10 0 59431 22500.00000 0 -16571509.761 -14548720.961 12909771.111 10 0 59431 23400.00000 0 -14997164.412 -13804128.225 15407758.377 10 0 59431 24300.00000 0 -13100597.201 -13079921.155 17607972.772 10 0 59431 25200.00000 0 -10916323.219 -12427030.580 19467820.362 10 0 59431 26100.00000 0 -8489464.120 -11890062.606 20951234.342 10 0 59431 27000.00000 0 -5874126.025 -11505342.032 22029369.862 10 0 59431 27900.00000 0 -3131409.421 -11299315.908 22681165.384 10 0 59431 28800.00000 0 -327130.938 -11287384.139 22893759.790 10 0 59431 29700.00000 0 2470651.293 -11473206.899 22662756.805 10 0 59431 30600.00000 0 5194208.617 -11848519.179 21992330.623 10 0 59431 31500.00000 0 7778704.424 -12393462.128 20895169.196 10 0 59431 32400.00000 0 10164643.424 -13077419.519 19392254.392 10 0 59431 33300.00000 0 12300106.549 -13860326.560 17512481.055 10 0 59431 34200.00000 0 14142678.419 -14694398.219 15292120.153 10 0 59431 35100.00000 0 15660986.418 -15526206.118 12774134.246 10 0 59431 36000.00000 0 16835786.032 -16299017.624 10007356.747 10 0 59431 36900.00000 0 17660545.663 -16955298.793 7045549.689 10 0 59431 37800.00000 0 18141505.109 -17439274.914 3946357.661 10 0 59431 38700.00000 0 18297204.268 -17699439.066 770178.302 10 0 59431 39600.00000 0 18157501.352 -17690900.504 -2421027.762 10 0 59431 40500.00000 0 17762122.170 -17377470.961 -5564962.955 10 0 59431 41400.00000 0 17158802.544 -16733397.822 -8600228.987 10 0 59431 42300.00000 0 16401103.854 -15744668.216 -11467546.851 10 0 59431 43200.00000 0 15545996.095 -14409826.572 -14110934.592 10 0 59431 44100.00000 0 14651312.955 -12740269.314 -16478817.731 10 0 59431 45000.00000 0 13773188.917 -10760003.226 -18525048.871 10 0 59431 45900.00000 0 12963588.846 -8504877.232 -20209815.375 10 0 59431 46800.00000 0 12268036.094 -6021320.076 -21500416.783 10 0 59431 47700.00000 0 11723636.076 -3364637.607 -22371896.726 10 0 59431 48600.00000 0 11357478.932 -596941.923 -22807517.647 10 0 59431 49500.00000 0 11185488.118 2215200.113 -22799070.121 10 0 59431 50400.00000 0 11211762.234 5003299.926 -22347012.197 10 0 59431 51300.00000 0 11428436.032 7699555.917 -21460437.748 10 0 59431 52200.00000 0 11816064.380 10239429.288 -20156876.163 10 0 59431 53100.00000 0 12344510.784 12564080.472 -18461929.028 10 0 59431 54000.00000 0 12974300.976 14622566.251 -16408752.427 10 0 59431 54900.00000 0 13658382.772 16373708.133 -14037396.185 10 0 59431 55800.00000 0 14344216.780 17787556.606 -11394013.979 10 0 59431 56700.00000 0 14976109.115 18846393.115 -8529960.352 10 0 59431 57600.00000 0 15497687.661 19545230.902 -5500792.466 10 0 59431 58500.00000 0 15854417.919 19891796.598 -2365196.051 10 0 59431 59400.00000 0 15996053.252 19905995.934 816143.928 10 0 59431 60300.00000 0 15878917.403 19618887.997 3981706.687 10 0 59431 61200.00000 0 15467924.432 19071212.451 7070311.385 10 0 59431 62100.00000 0 14738252.198 18311532.238 10022283.664 10 0 59431 63000.00000 0 13676599.846 17394069.695 12780591.787 10 0 59431 63900.00000 0 12281976.931 16376326.310 15291931.758 10 0 59431 64800.00000 0 10565990.783 15316584.852 17507742.074 10 0 59431 65700.00000 0 8552619.168 14271397.225 19385129.925 10 0 59431 66600.00000 0 6277476.148 13293161.851 20887692.232 10 0 59431 67500.00000 0 3786599.498 12427890.688 21986216.693 10 0 59431 68400.00000 0 1134807.435 11713258.352 22659249.933 10 0 59431 69300.00000 0 -1616309.959 11177014.457 22893521.897 10 0 59431 70200.00000 0 -4400684.249 10835825.691 22684217.904 10 0 59431 71100.00000 0 -7150254.789 10694596.762 22035092.157 10 0 59431 72000.00000 0 -9797546.645 10746299.934 20958419.017 10 0 59431 72900.00000 0 -12278235.144 10972322.009 19474781.151 10 0 59431 73800.00000 0 -14533591.600 11343316.134 17612696.412 10 0 59431 74700.00000 0 -16512708.710 11820524.657 15408088.498 10 0 59431 75600.00000 0 -18174412.527 12357519.089 12903609.471 10 0 59431 76500.00000 0 -19488780.209 12902285.118 10147825.442 10 0 59431 77400.00000 0 -20438198.588 13399565.266 7194279.960 10 0 59431 78300.00000 0 -21017917.732 13793359.993 4100452.633 10 0 59431 79200.00000 0 -21236074.819 14029480.399 926633.230 10 0 59431 80100.00000 0 -21113186.318 14058042.651 -2265265.978 10 0 59431 81000.00000 0 -20681129.437 13835796.144 -5412935.091 10 0 59431 81900.00000 0 -19981656.096 13328183.998 -8454902.981 10 0 59431 82800.00000 0 -19064503.132 12511045.892 -11331758.739 10 0 59431 83700.00000 0 -17985180.174 11371888.542 -13987332.162 10 0 59431 84600.00000 0 -16802530.695 9910667.957 -16369808.097 10 0 59431 85500.00000 0 -15576171.518 8140048.897 -18432751.045 10 0 59432 0.00000 0 -14363921.005 6085129.764 -20136018.802 10 0 59432 900.00000 0 -13219326.480 3782643.846 -21446546.761 10 0 59432 1800.00000 0 -12189395.655 1279671.887 -22338987.152 10 0 59432 2700.00000 0 -11312629.558 -1368080.865 -22796191.739 10 0 59432 3600.00000 0 -10617437.775 -4098368.842 -22809529.399 10 0 59432 4500.00000 0 -10121002.902 -6844764.272 -22379033.789 10 0 59432 5400.00000 0 -9828639.583 -9539190.006 -21513380.000 10 0 59432 6300.00000 0 -9733673.018 -12114521.405 -20229692.348 10 0 59432 7200.00000 0 -9817839.484 -14507149.157 -18553188.814 10 0 59432 8100.00000 0 -10052189.465 -16659397.317 -16516670.587 10 0 59432 9000.00000 0 -10398453.000 -18521697.464 -14159867.965 10 0 59432 9900.00000 0 -10810807.852 -20054430.390 -11528656.408 10 0 59432 10800.00000 0 -11237974.554 -21229361.065 -8674158.647 10 0 59432 11700.00000 0 -11625549.264 -22030609.712 -5651750.645 10 0 59432 12600.00000 0 -11918475.913 -22455121.084 -2519990.787 10 0 59432 13500.00000 0 -12063553.776 -22512614.899 660507.248 10 0 59432 14400.00000 0 -12011875.575 -22225021.634 3828236.738 10 0 59432 15300.00000 0 -11721094.397 -21625428.906 6921973.566 10 0 59432 16200.00000 0 -11157425.080 -20756583.557 9881943.689 10 0 59432 17100.00000 0 -10297296.771 -19669012.466 12650961.220 10 0 59432 18000.00000 0 -9128587.771 -18418840.468 15175516.470 10 0 59432 18900.00000 0 -7651390.909 -17065395.809 17406794.521 10 0 59432 19800.00000 0 -5878276.666 -15668702.030 19301606.124 10 0 59432 20700.00000 0 -3834041.804 -14286959.633 20823214.185 10 0 59432 21600.00000 0 -1554951.926 -12974121.258 21942040.971 10 0 59432 22500.00000 0 912493.064 -11777660.270 22636243.014 10 0 59432 23400.00000 0 3513222.127 -10736625.017 22892142.738 10 0 59432 24300.00000 0 6185618.932 -9880059.514 22704508.133 10 0 59432 25200.00000 0 8863829.329 -9225856.639 22076674.131 10 0 59432 26100.00000 0 11480257.290 -8780092.475 21020501.879 10 0 59432 27000.00000 0 13968147.887 -8536870.822 19556174.852 10 0 59432 27900.00000 0 16264151.455 -8478685.922 17711833.551 10 0 59432 28800.00000 0 18310762.854 -8577289.884 15523053.656 10 0 59432 29700.00000 0 20058534.084 -8795029.919 13032175.565 10 0 59432 30600.00000 0 21467967.060 -9086600.356 10287496.470 10 0 59432 31500.00000 0 22511005.948 -9401136.270 7342339.380 10 0 59432 32400.00000 0 23172064.867 -9684560.299 4254016.425 10 0 59432 33300.00000 0 23448546.107 -9882082.616 1082706.615 10 0 59432 34200.00000 0 23350825.560 -9940746.699 -2109729.304 10 0 59432 35100.00000 0 22901705.039 -9811910.861 -5260972.482 10 0 59432 36000.00000 0 22135354.208 -9453557.747 -8309482.379 10 0 59432 36900.00000 0 21095787.177 -8832331.108 -11195719.558 10 0 59432 37800.00000 0 19834939.157 -7925210.833 -13863328.788 10 0 59432 38700.00000 0 18410425.980 -6720752.859 -16260257.234 10 0 59432 39600.00000 0 16883083.067 -5219839.671 -18339784.027 10 0 59432 40500.00000 0 15314389.715 -3435908.379 -20061439.874 10 0 59432 41400.00000 0 13763889.125 -1394646.075 -21391798.036 10 0 59432 42300.00000 0 12286714.283 866834.639 -22305121.131 10 0 59432 43200.00000 0 10931324.547 3301304.968 -22783851.681 10 0 59432 44100.00000 0 9737548.052 5853158.423 -22818937.885 10 0 59432 45000.00000 0 8735011.372 8460504.857 -22409989.636 10 0 59432 45900.00000 0 7942020.728 11057531.814 -21565263.466 10 0 59432 46800.00000 0 7364939.466 13577034.210 -20301478.444 10 0 59432 47700.00000 0 6998085.253 15953006.775 -18643468.342 10 0 59432 48600.00000 0 6824148.429 18123191.730 -16623678.456 10 0 59432 49500.00000 0 6815111.053 20031476.658 -14281518.155 10 0 59432 50400.00000 0 6933625.491 21630044.113 -11662582.854 10 0 59432 51300.00000 0 7134792.430 22881185.430 -8817761.264 10 0 59432 52200.00000 0 7368261.944 23758705.410 -5802245.566 10 0 59432 53100.00000 0 7580568.307 24248861.593 -2674463.904 10 0 59432 54000.00000 0 7717599.930 24350801.353 505044.476 10 0 59432 54900.00000 0 7727100.676 24076480.604 3674790.212 10 0 59432 55800.00000 0 7561097.908 23450069.227 6773509.262 10 0 59432 56700.00000 0 7178155.947 22506869.211 9741331.223 10 0 59432 57600.00000 0 6545361.042 21291791.257 12520919.253 10 0 59432 58500.00000 0 5639955.117 19857453.377 15058560.976 10 0 59432 59400.00000 0 4450550.005 18261980.241 17305190.836 10 0 59432 60300.00000 0 2977870.910 16566593.911 19217325.637 10 0 59432 61200.00000 0 1234997.068 14833095.038 20757896.470 10 0 59432 62100.00000 0 -752912.150 13121337.870 21896962.038 10 0 59432 63000.00000 0 -2949396.615 11486802.720 22612290.264 10 0 59432 63900.00000 0 -5307950.574 9978365.763 22889797.125 10 0 59432 64800.00000 0 -7773704.466 8636358.133 22723833.888 10 0 59432 65700.00000 0 -10285466.688 7490994.833 22117316.316 10 0 59432 66600.00000 0 -12778043.357 6561239.161 21081691.896 10 0 59432 67500.00000 0 -15184742.189 5854150.751 19636743.911 10 0 59432 68400.00000 0 -17439958.228 5364745.590 17810233.957 10 0 59432 69300.00000 0 -19481734.799 5076375.250 15637387.629 10 0 59432 70200.00000 0 -21254193.123 4961610.835 13160231.155 10 0 59432 71100.00000 0 -22709728.604 4983595.671 10426789.968 10 0 59432 72000.00000 0 -23810880.526 5097810.589 7490163.438 10 0 59432 72900.00000 0 -24531795.125 5254177.505 4407493.005 10 0 59432 73800.00000 0 -24859218.638 5399411.863 1238843.678 10 0 59432 74700.00000 0 -24792976.672 5479523.145 -1953978.532 10 0 59432 75600.00000 0 -24345918.222 5442355.600 -5108648.928 10 0 59432 76500.00000 0 -23543325.729 5240058.994 -8163560.527 10 0 59432 77400.00000 0 -22421815.805 4831381.936 -11059048.162 10 0 59432 78300.00000 0 -21027777.538 4183687.702 -13738574.160 10 0 59432 79200.00000 0 -19415415.331 3274604.584 -16149850.328 10 0 59432 80100.00000 0 -17644480.531 2093238.712 -18245872.427 10 0 59432 81000.00000 0 -15777789.292 640896.487 -19985845.663 10 0 59432 81900.00000 0 -13878633.012 -1068714.890 -21335982.403 10 0 59432 82800.00000 0 -12008191.888 -3009817.492 -22270156.375 10 0 59432 83700.00000 0 -10223061.235 -5145409.300 -22770401.129 10 0 59432 84600.00000 0 -8572994.685 -7428591.227 -22827244.030 10 0 59432 85500.00000 0 -7098958.443 -9804318.014 -22439870.666 10 0 59433 0.00000 0 -5831576.777 -12211498.859 -21616118.147 10 0 59433 900.00000 0 -4790031.917 -14585359.417 -20372299.052 10 0 59433 1800.00000 0 -3981461.308 -16859965.899 -18732861.555 10 0 59433 2700.00000 0 -3400875.517 -18970806.086 -16729893.434 10 0 59433 3600.00000 0 -3031595.744 -20857320.502 -14402481.375 10 0 59433 4500.00000 0 -2846190.594 -22465278.742 -11795938.920 10 0 59433 5400.00000 0 -2807869.612 -23748903.706 -8960918.869 10 0 59433 6300.00000 0 -2872272.961 -24672656.893 -5952427.740 10 0 59433 7200.00000 0 -2989580.464 -25212612.308 -2828761.535 10 0 59433 8100.00000 0 -3106850.384 -25357363.753 349616.820 10 0 59433 9000.00000 0 -3170489.254 -25108429.587 3521237.235 10 0 59433 9900.00000 0 -3128749.121 -24480139.678 6624797.697 10 0 59433 10800.00000 0 -2934147.726 -23499010.475 9600333.432 10 0 59433 11700.00000 0 -2545710.673 -22202634.916 12390358.700 10 0 59433 12600.00000 0 -1930942.119 -20638133.529 14940960.517 10 0 59433 13500.00000 0 -1067441.726 -18860230.767 17202824.761 10 0 59433 14400.00000 0 55899.866 -16929035.633 19132176.311 10 0 59433 15300.00000 0 1438177.705 -14907617.568 20691616.340 10 0 59433 16200.00000 0 3066252.786 -12859476.754 21850841.707 10 0 59433 17100.00000 0 4915047.060 -10846012.252 22587233.238 10 0 59433 18000.00000 0 6948343.352 -8924091.701 22886301.723 10 0 59433 18900.00000 0 9120059.814 -7143822.280 22741982.696 10 0 59433 19800.00000 0 11375949.049 -5546614.816 22156773.462 10 0 59433 20700.00000 0 13655654.203 -4163621.331 21141708.281 10 0 59433 21600.00000 0 15895039.275 -3014611.371 19716170.378 10 0 59433 22500.00000 0 18028698.827 -2107334.680 17907542.285 10 0 59433 23400.00000 0 19992543.900 -1437397.978 15750699.022 10 0 59433 24300.00000 0 21726356.861 -988662.207 13287351.807 10 0 59433 25200.00000 0 23176208.149 -734144.715 10565253.080 10 0 59433 26100.00000 0 24296632.615 -637389.321 7637276.941 10 0 59433 27000.00000 0 25052472.578 -654246.922 4560392.085 10 0 59433 27900.00000 0 25420308.059 -734991.154 1394547.077 10 0 59433 28800.00000 0 25389411.899 -826678.733 -1798509.595 10 0 59433 29700.00000 0 24962187.548 -875652.848 -4956450.416 10 0 59433 30600.00000 0 24154069.564 -830081.300 -8017605.137 10 0 59433 31500.00000 0 22992890.120 -642419.152 -10922186.049 10 0 59433 32400.00000 0 21517738.099 -271688.706 -13613476.152 10 0 59433 33300.00000 0 19777359.424 314522.549 -16038954.843 10 0 59433 34200.00000 0 17828167.239 1138432.993 -18151337.250 10 0 59433 35100.00000 0 15731947.305 2210877.687 -19909505.582 10 0 59433 36000.00000 0 13553356.832 3530610.489 -21279313.557 10 0 59433 36900.00000 0 11357323.480 5084127.433 -22234248.001 10 0 59433 37800.00000 0 9206454.897 6846018.804 -22755935.192 10 0 59433 38700.00000 0 7158567.927 8779834.622 -22834483.057 10 0 59433 39600.00000 0 5264440.900 10839426.281 -22468653.914 10 0 59433 40500.00000 0 3565882.015 12970707.138 -21665866.055 10 0 59433 41400.00000 0 2094192.851 15113757.442 -20442025.912 10 0 59433 42300.00000 0 869088.849 17205184.772 -18821195.795 10 0 59433 43200.00000 0 -101881.092 19180641.050 -16835105.332 10 0 59433 44100.00000 0 -823394.867 20977391.095 -14522517.419 10 0 59433 45000.00000 0 -1311898.013 22536826.009 -11928462.172 10 0 59433 45900.00000 0 -1594647.500 23806817.531 -9103354.518 10 0 59433 46800.00000 0 -1708301.297 24743816.489 -6102012.945 10 0 59433 47700.00000 0 -1697115.006 25314609.394 -2982598.616 10 0 59433 48600.00000 0 -1610822.834 25497661.651 194504.844 10 0 59433 49500.00000 0 -1502292.781 25283993.045 3367849.787 10 0 59433 50400.00000 0 -1425054.775 24677550.484 6476099.519 10 0 59433 51300.00000 0 -1430805.402 23695063.600 9459198.223 10 0 59433 52200.00000 0 -1566993.472 22365389.887 12259514.533 10 0 59433 53100.00000 0 -1874587.049 20728376.805 14822938.028 10 0 59433 54000.00000 0 -2386115.046 18833287.776 17099909.018 10 0 59433 54900.00000 0 -3124065.174 16736856.499 19046363.240 10 0 59433 55800.00000 0 -4099705.451 14501049.106 20624574.482 10 0 59433 56700.00000 0 -5312379.390 12190625.287 21803880.002 10 0 59433 57600.00000 0 -6749305.739 9870597.766 22561275.423 10 0 59433 58500.00000 0 -8385893.211 7603693.715 22881867.842 10 0 59433 59400.00000 0 -10186559.662 5447921.847 22759178.104 10 0 59433 60300.00000 0 -12106024.588 3454344.923 22195285.589 10 0 59433 61200.00000 0 -14091024.042 1665149.556 21200811.291 10 0 59433 62100.00000 0 -16082379.459 112093.354 19794737.761 10 0 59433 63000.00000 0 -18017336.588 -1184605.575 18004067.236 10 0 59433 63900.00000 0 -19832078.695 -2216889.585 15863322.367 10 0 59433 64800.00000 0 -21464310.068 -2988965.969 13413897.032 10 0 59433 65700.00000 0 -22855801.851 -3516889.448 10703267.906 10 0 59433 66600.00000 0 -23954792.736 -3827639.231 7784080.699 10 0 59433 67500.00000 0 -24718142.246 -3957728.928 4713127.996 10 0 59433 68400.00000 0 -25113144.079 -3951407.916 1550238.412 10 0 59433 69300.00000 0 -25118920.808 -3858530.764 -1642900.626 10 0 59433 70200.00000 0 -24727338.876 -3732186.205 -4803962.299 10 0 59433 71100.00000 0 -23943403.280 -3626188.011 -7871216.503 10 0 59433 72000.00000 0 -22785113.783 -3592536.548 -10784756.255 10 0 59433 72900.00000 0 -21282787.952 -3678961.308 -13487688.274 10 0 59433 73800.00000 0 -19477879.429 -3926651.311 -15927262.319 10 0 59433 74700.00000 0 -17421341.929 -4368271.973 -18055915.283 10 0 59433 75600.00000 0 -15171608.941 -5026354.449 -19832208.327 10 0 59433 76500.00000 0 -12792275.542 -5912127.011 -21221637.947 10 0 59433 77400.00000 0 -10349581.214 -7024838.559 -22197304.912 10 0 59433 78300.00000 0 -7909800.523 -8351602.935 -22740428.484 10 0 59433 79200.00000 0 -5536651.717 -9867770.176 -22840696.837 10 0 59433 80100.00000 0 -3288831.893 -11537808.178 -22496448.191 10 0 59433 81000.00000 0 -1217781.152 -13316656.661 -21714680.781 10 0 59433 81900.00000 0 634232.304 -15151495.503 -20510893.216 10 0 59433 82800.00000 0 2235628.215 -16983852.260 -18908760.096 10 0 59433 83700.00000 0 3566570.910 -18751959.936 -16939650.810 10 0 59433 84600.00000 0 4619525.612 -20393266.002 -14642002.265 10 0 59433 85500.00000 0 5399294.429 -21846987.797 -12060558.888 10 0 59434 0.00000 0 5922533.913 -23056608.100 -9245495.500 10 0 59434 900.00000 0 6216777.392 -23972207.328 -6251440.159 10 0 59434 1800.00000 0 6319005.722 -24552536.836 -3136417.006 10 0 59434 2700.00000 0 6273828.222 -24766746.846 39271.823 10 0 59434 3600.00000 0 6131351.714 -24595699.922 3214203.249 10 0 59434 4500.00000 0 5944827.606 -24032815.260 6327007.949 10 0 59434 5400.00000 0 5768175.989 -23084410.276 9317541.036 10 0 59434 6300.00000 0 5653490.300 -21769525.654 12128027.413 10 0 59434 7200.00000 0 5648626.624 -20119241.358 14704161.012 10 0 59434 8100.00000 0 5794978.009 -18175511.651 16996138.248 10 0 59434 9000.00000 0 6125526.520 -15989566.541 18959607.239 10 0 59434 9900.00000 0 6663254.355 -13619944.644 20556515.732 10 0 59434 10800.00000 0 7419980.774 -11130237.232 21755842.516 10 0 59434 11700.00000 0 8395674.374 -8586634.945 22534198.926 10 0 59434 12600.00000 0 9578270.967 -6055376.822 22876289.043 10 0 59434 13500.00000 0 10944006.775 -3600205.424 22775219.475 10 0 59434 14400.00000 0 12458255.690 -1279931.901 22232651.898 10 0 59434 15300.00000 0 14076838.458 853789.011 21258794.061 10 0 59434 16200.00000 0 15747752.039 2758382.322 19872227.653 10 0 59434 17100.00000 0 17413249.558 4401894.478 18099574.230 10 0 59434 18000.00000 0 19012185.951 5764088.596 15975003.465 10 0 59434 18900.00000 0 20482532.574 6837046.725 13539591.054 10 0 59434 19800.00000 0 21763955.927 7625252.830 10840536.789 10 0 59434 20700.00000 0 22800351.873 8145151.966 7930256.578 10 0 59434 21600.00000 0 23542227.688 8424203.393 4865365.167 10 0 59434 22500.00000 0 23948829.772 8499467.205 1705569.179 10 0 59434 23400.00000 0 23989925.028 8415784.350 -1487507.345 10 0 59434 24300.00000 0 23647158.286 8223627.967 -4651540.836 10 0 59434 25200.00000 0 22914926.072 7976718.557 -7724744.027 10 0 59434 26100.00000 0 21800727.848 7729506.164 -10647093.405 10 0 59434 27000.00000 0 20324978.486 7534628.775 -13361522.116 10 0 59434 27900.00000 0 18520289.134 7440457.292 -15815052.877 10 0 59434 28800.00000 0 16430246.845 7488833.603 -17959846.801 10 0 59434 29700.00000 0 14107744.962 7713099.655 -19754146.279 10 0 59434 30600.00000 0 11612935.495 8136502.541 -21163092.687 10 0 59434 31500.00000 0 9010890.864 8771043.913 -22159402.651 10 0 59434 32400.00000 0 6369074.247 9616822.562 -22723890.128 10 0 59434 33300.00000 0 3754725.388 10661897.475 -22845825.005 10 0 59434 34200.00000 0 1232271.681 11882676.242 -22523122.583 10 0 59434 35100.00000 0 -1139127.582 13244811.207 -21762361.863 10 0 59434 36000.00000 0 -3307802.309 14704564.328 -20578634.063 10 0 59434 36900.00000 0 -5231467.061 16210582.071 -18995226.052 10 0 59434 37800.00000 0 -6878714.210 17706004.748 -17043146.522 10 0 59434 38700.00000 0 -8230045.461 19130821.100 -14760505.492 10 0 59434 39600.00000 0 -9278401.865 20424369.091 -12191760.374 10 0 59434 40500.00000 0 -10029173.563 21527878.271 -9386844.062 10 0 59434 41400.00000 0 -10499692.107 22386947.832 -6400192.388 10 0 59434 42300.00000 0 -10718229.427 22953857.501 -3289690.035 10 0 59434 43200.00000 0 -10722547.804 23189615.755 -115555.085 10 0 59434 44100.00000 0 -10558063.379 23065660.955 3060816.708 10 0 59434 45000.00000 0 -10275701.273 22565145.483 6178026.292 10 0 59434 45900.00000 0 -9929532.760 21683750.247 9175842.712 10 0 59434 46800.00000 0 -9574293.465 20429996.159 11996350.181 10 0 59434 47700.00000 0 -9262886.163 18825039.802 14585050.029 10 0 59434 48600.00000 0 -9043972.067 16901961.355 16891897.760 10 0 59434 49500.00000 0 -8959750.757 14704573.417 18872256.753 10 0 59434 50400.00000 0 -9044021.100 12285798.766 20487751.431 10 0 59434 51300.00000 0 -9320604.088 9705682.420 21707004.619 10 0 59434 52200.00000 0 -9802193.856 7029118.144 22506245.583 10 0 59434 53100.00000 0 -10489685.806 4323381.379 22869777.268 10 0 59434 54000.00000 0 -11372011.497 1655568.465 22790293.506 10 0 59434 54900.00000 0 -12426489.263 -909953.766 22269039.260 10 0 59434 55800.00000 0 -13619678.411 -3313983.749 21315809.488 10 0 59434 56700.00000 0 -14908703.969 -5504706.301 19948784.898 10 0 59434 57600.00000 0 -16242999.188 -7439607.211 18194205.650 10 0 59434 58500.00000 0 -17566395.094 -9087001.339 16085887.142 10 0 59434 59400.00000 0 -18819471.186 -10427109.877 13664585.028 10 0 59434 60300.00000 0 -19942069.570 -11452640.739 10977219.864 10 0 59434 61200.00000 0 -20875866.869 -12168846.583 8075974.964 10 0 59434 62100.00000 0 -21566894.864 -12593057.071 5017284.108 10 0 59434 63000.00000 0 -21967902.006 -12753704.397 1860728.547 10 0 59434 63900.00000 0 -22040453.977 -12688882.974 -1332134.619 10 0 59434 64800.00000 0 -21756682.019 -12444504.697 -4498988.713 10 0 59434 65700.00000 0 -21100602.579 -12072128.937 -7577992.972 10 0 59434 66600.00000 0 -20068950.074 -11626560.922 -10509010.967 10 0 59434 67500.00000 0 -18671485.710 -11163322.501 -13234805.763 10 0 59434 68400.00000 0 -16930767.958 -10736104.897 -15702176.299 10 0 59434 69300.00000 0 -14881393.808 -10394313.842 -17863010.840 10 0 59434 70200.00000 0 -12568742.845 -10180813.211 -19675235.498 10 0 59434 71100.00000 0 -10047277.558 -10129964.374 -21103638.475 10 0 59434 72000.00000 0 -7378472.353 -10266045.174 -22120553.576 10 0 59434 72900.00000 0 -4628459.192 -10602115.724 -22706390.104 10 0 59434 73800.00000 0 -1865489.391 -11139378.495 -22849999.661 10 0 59434 74700.00000 0 842681.579 -11867058.743 -22548874.006 10 0 59434 75600.00000 0 3431377.038 -12762808.901 -21809171.764 10 0 59434 76500.00000 0 5841442.629 -13793618.306 -20645575.173 10 0 59434 77400.00000 0 8021449.744 -14917188.263 -19080981.439 10 0 59434 78300.00000 0 9929569.025 -16083713.139 -17146036.357 10 0 59434 79200.00000 0 11535038.395 -17237991.436 -14878520.646 10 0 59434 80100.00000 0 12819167.330 -18321777.359 -12322602.135 10 0 59434 81000.00000 0 13775838.692 -19276273.850 -9527969.165 10 0 59434 81900.00000 0 14411490.448 -20044662.612 -6548862.458 10 0 59434 82800.00000 0 14744580.971 -20574565.569 -3443024.488 10 0 59434 83700.00000 0 14804562.984 -20820335.431 -270586.501 10 0 59434 84600.00000 0 14630411.176 -20745080.461 2907085.794 10 0 59434 85500.00000 0 14268766.561 -20322339.732 6028566.199 99